Tracking 32139 objects as of 16-Nov-2025
HD Live streaming from Space Station
objects crossing your sky now

LEAP-1

Track LEAP-1 now!
10-day predictions


NORAD ID: 65321
Int'l Code: 2025-188G
Perigee: 602.4 km
Apogee: 606.9 km
Inclination: 97.8 °
Period: 96.6 minutes
Semi major axis: 6975 km
RCS: Unknown
Launch date: August 26, 2025
Source: United States (US)
Launch site: AIR FORCE WESTERN TEST RANGE (AFWTR)
Your satellite tracking list
Your tracking list is empty




NASA's NSSDC Master Catalog

Two Line Element Set (TLE):
1 65321U 25188G   25319.83503009  .00005173  00000-0  54023-3 0  9992
2 65321  97.7612  33.1845 0003183 169.7325 190.3958 14.90129923 12067
Source of the keplerian elements: AFSPC